GW7074 Weather Reports


time (UTC)temp
C
wind
direction
speed
KPH
gust
KPH
rain 1hr
cm
rain 24hr
cm
rain mn
cm
humidity
%
barometer
mb
20260506050954 24 201 3.2 3.2 0.00 0.00 0.00 96 1009.0
20260506050452 24 212 1.6 1.6 0.00 0.00 0.00 96 1009.2
20260506044942 25 238 3.2 3.2 0.00 0.00 0.00 95 1009.3
20260506044440 25 233 1.6 1.6 0.00 0.00 0.00 95 1009.3
20260506043937 25 235 1.6 1.6 0.00 0.00 0.00 94 1009.0
20260506043434 25 127 8.0 9.7 0.00 0.00 0.00 94 1009.0
20260506042932 25 230 3.2 3.2 0.00 0.00 0.00 93 1009.2
20260506042431 25 156 4.8 4.8 0.00 0.00 0.00 93 1008.9
20260506041929 25 134 6.4 9.7 0.00 0.00 0.00 93 1008.9
20260506041426 25 208 0.0 1.6 0.00 0.00 0.00 93 1009.0
20260506040923 25 226 0.0 1.6 0.00 0.00 0.00 93 1009.1
20260506040421 25 221 1.6 1.6 0.00 0.00 0.00 93 1009.0
20260506035916 25 174 3.2 6.4 0.00 0.00 0.00 93 1008.9
20260506035415 25 225 0.0 1.6 0.00 0.00 0.00 93 1008.7
20260506034911 25 217 4.8 6.4 0.00 0.00 0.00 92 1008.7
20260506034408 25 177 4.8 6.4 0.00 0.00 0.00 92 1008.8
20260506033905 25 217 3.2 3.2 0.00 0.00 0.00 92 1008.6
20260506033402 25 195 3.2 4.8 0.00 0.00 0.00 92 1008.6
20260506032859 25 229 1.6 3.2 0.00 0.00 0.00 92 1008.5
20260506032356 25 168 1.6 3.2 0.00 0.00 0.00 91 1008.5
20260506031853 25 201 3.2 3.2 0.00 0.00 0.00 91 1008.3
20260506031350 25 225 1.6 3.2 0.00 0.00 0.00 91 1008.5
20260506030848 25 216 3.2 3.2 0.00 0.00 0.00 90 1008.4
20260506030346 25 247 6.4 6.4 0.00 0.00 0.00 90 1008.5
20260506025842 25 222 1.6 1.6 0.00 0.00 0.00 90 1008.5
20260506025338 25 158 3.2 4.8 0.00 0.00 0.00 90 1008.4
20260506024835 25 165 1.6 4.8 0.00 0.00 0.00 90 1008.4
20260506024332 25 234 3.2 4.8 0.00 0.00 0.00 90 1008.3
20260506023828 25 230 1.6 3.2 0.00 0.00 0.00 89 1008.0
20260506023325 25 223 1.6 3.2 0.00 0.00 0.00 89 1008.2
20260506022822 25 245 0.0 1.6 0.00 0.00 0.00 89 1007.9
20260506022320 25 178 6.4 11.3 0.00 0.00 0.00 89 1007.9
20260506021818 25 154 4.8 9.7 0.00 0.00 0.00 89 1007.9
20260506021314 25 141 1.6 3.2 0.00 0.00 0.00 89 1007.7
20260506020811 25 206 3.2 6.4 0.00 0.00 0.00 89 1007.8
20260506020309 25 207 4.8 6.4 0.00 0.00 0.00 89 1007.7
20260506015807 25 229 0.0 0.0 0.00 0.00 0.00 88 1007.7
20260506015306 25 211 1.6 3.2 0.00 0.00 0.00 88 1007.7
20260506014800 26 212 6.4 6.4 0.00 0.00 0.00 88 1007.4
20260506014257 26 230 3.2 4.8 0.00 0.00 0.00 88 1007.2
20260506013754 26 213 9.7 11.3 0.00 0.00 0.00 87 1007.5
20260506013251 26 178 3.2 4.8 0.00 0.00 0.00 87 1007.2
20260506012748 26 223 4.8 6.4 0.00 0.00 0.00 87 1007.1
20260506012245 26 143 4.8 4.8 0.00 0.00 0.00 87 1007.0
20260506011742 26 205 1.6 3.2 0.00 0.00 0.00 86 1007.1
20260506011238 26 164 3.2 4.8 0.00 0.00 0.00 86 1007.0
20260506010737 26 220 3.2 3.2 0.00 0.00 0.00 85 1007.0
20260506010233 26 223 1.6 1.6 0.00 0.00 0.00 85 1007.0
20260506005731 26 138 4.8 6.4 0.00 0.00 0.00 85 1007.0
20260506005227 26 205 3.2 3.2 0.00 0.00 0.00 84 1006.7
20260506004723 26 224 1.6 1.6 0.00 0.00 0.00 84 1006.6
20260506004221 26 220 0.0 1.6 0.00 0.00 0.00 83 1006.9
20260506003717 26 210 3.2 4.8 0.00 0.00 0.00 83 1006.6
20260506003214 26 248 4.8 6.4 0.00 0.00 0.00 83 1006.5
20260506002709 26 213 4.8 4.8 0.00 0.00 0.00 83 1006.7
20260506002206 26 220 6.4 6.4 0.00 0.00 0.00 82 1006.5
20260506001701 26 228 3.2 3.2 0.00 0.00 0.00 82 1006.4
20260506001159 27 199 3.2 4.8 0.00 0.00 0.00 81 1006.4
20260506000656 27 204 4.8 6.4 0.00 0.00 0.00 81 1006.4
20260506000154 27 181 4.8 9.7 0.00 0.00 0.00 80 1006.7
20260505235651 27 232 4.8 4.8 0.00 0.00 0.00 80 1006.5
20260505235149 27 185 6.4 6.4 0.00 0.00 0.00 80 1006.5
20260505234645 27 271 3.2 3.2 0.00 0.00 0.00 79 1006.5
20260505234142 27 208 1.6 3.2 0.00 0.00 0.00 78 1006.5
20260505233639 27 228 3.2 3.2 0.00 0.00 0.00 77 1006.5
20260505233137 27 202 4.8 4.8 0.00 0.00 0.00 78 1006.6
20260505232634 27 190 4.8 6.4 0.00 0.00 0.00 78 1006.5
20260505232132 27 265 1.6 6.4 0.00 0.00 0.00 79 1006.4
20260505231628 27 231 6.4 9.7 0.00 0.00 0.00 78 1006.5
20260505231127 27 164 3.2 3.2 0.00 0.00 0.00 79 1006.5
20260505230625 27 214 4.8 9.7 0.00 0.00 0.00 78 1006.6
20260505230120 27 207 4.8 4.8 0.00 0.00 0.00 78 1006.5
20260505225617 27 215 3.2 3.2 0.00 0.00 0.00 78 1006.4
20260505225114 27 252 9.7 11.3 0.00 0.00 0.00 78 1006.2
20260505224610 27 199 8.0 14.5 0.00 0.00 0.00 78 1006.5
20260505224108 28 232 6.4 9.7 0.00 0.00 0.00 77 1006.7
20260505223605 27 232 4.8 6.4 0.00 0.00 0.00 79 1006.6
20260505223101 28 227 9.7 11.3 0.00 0.00 0.00 78 1006.5
20260505222557 28 204 6.4 12.9 0.00 0.00 0.00 78 1006.7
20260505222054 28 223 3.2 3.2 0.00 0.00 0.00 79 1006.6
20260505221551 28 215 6.4 9.7 0.00 0.00 0.00 77 1006.7
20260505221047 28 183 8.0 14.5 0.00 0.00 0.00 76 1006.5
20260505220545 28 200 3.2 3.2 0.00 0.00 0.00 78 1006.8
20260505220042 28 207 4.8 6.4 0.00 0.00 0.00 79 1006.9
20260505215540 28 252 6.4 9.7 0.00 0.00 0.00 77 1006.8
20260505215038 28 218 6.4 9.7 0.00 0.00 0.00 77 1007.0
20260505214536 28 234 3.2 3.2 0.00 0.00 0.00 78 1006.9
20260505214032 28 161 4.8 6.4 0.00 0.00 0.00 78 1006.9
20260505213530 28 210 6.4 6.4 0.00 0.00 0.00 78 1006.9
20260505213026 28 228 4.8 6.4 0.00 0.00 0.00 77 1007.1
20260505212522 28 226 3.2 3.2 0.00 0.00 0.00 77 1007.3
20260505212020 28 206 1.6 1.6 0.00 0.00 0.00 77 1007.3
20260505211517 28 207 6.4 9.7 0.00 0.00 0.00 77 1007.3
20260505211014 28 222 4.8 6.4 0.00 0.00 0.00 77 1007.3
20260505210510 28 215 6.4 9.7 0.00 0.00 0.00 76 1007.4
20260505210007 28 194 4.8 6.4 0.00 0.00 0.00 77 1007.6
20260505205506 28 227 3.2 3.2 0.00 0.00 0.00 78 1007.7
20260505205002 28 207 6.4 6.4 0.00 0.00 0.00 76 1007.8
20260505204500 28 252 3.2 3.2 0.00 0.00 0.00 78 1007.9
20260505203957 28 204 3.2 4.8 0.00 0.00 0.00 78 1007.6
20260505203453 28 207 6.4 6.4 0.00 0.00 0.00 77 1008.0
20260505202950 28 195 8.0 9.7 0.00 0.00 0.00 77 1008.2
20260505202447 29 219 3.2 3.2 0.00 0.00 0.00 77 1008.2
20260505201942 28 224 1.6 1.6 0.00 0.00 0.00 78 1008.1
20260505201440 28 209 3.2 4.8 0.00 0.00 0.00 76 1008.1
20260505200938 28 246 3.2 4.8 0.00 0.00 0.00 77 1008.3
20260505200435 29 208 8.0 11.3 0.00 0.00 0.00 75 1008.2
20260505195930 29 228 6.4 6.4 0.00 0.00 0.00 75 1008.2
20260505195428 29 274 4.8 6.4 0.00 0.00 0.00 75 1008.3
20260505194925 29 196 9.7 14.5 0.00 0.00 0.00 75 1008.3
20260505194423 28 228 3.2 3.2 0.00 0.00 0.00 76 1008.5
20260505193922 28 197 1.6 1.6 0.00 0.00 0.00 79 1008.3
20260505193420 28 243 1.6 1.6 0.00 0.00 0.00 78 1008.6
20260505192918 28 217 6.4 9.7 0.00 0.00 0.00 77 1008.7
20260505192416 28 206 8.0 9.7 0.00 0.00 0.00 76 1008.6
20260505191913 28 239 4.8 9.7 0.00 0.00 0.00 77 1008.6
20260505191412 28 212 6.4 6.4 0.00 0.00 0.00 77 1008.5
20260505190908 28 217 4.8 6.4 0.00 0.00 0.00 78 1008.5
20260505190404 28 214 1.6 3.2 0.00 0.00 0.00 78 1008.6
20260505185859 28 250 11.3 14.5 0.00 0.00 0.00 78 1008.6
20260505185356 28 189 6.4 6.4 0.00 0.00 0.00 78 1008.6
20260505184852 28 228 1.6 4.8 0.00 0.00 0.00 79 1008.6
20260505184349 28 230 9.7 11.3 0.00 0.00 0.00 78 1008.7
20260505183846 28 236 1.6 1.6 0.00 0.00 0.00 78 1008.8
20260505183343 28 241 3.2 4.8 0.00 0.00 0.00 78 1008.9
20260505182840 28 195 8.0 11.3 0.00 0.00 0.00 78 1008.8
20260505182336 27 224 6.4 9.7 0.00 0.00 0.00 80 1008.9
20260505181833 27 221 3.2 6.4 0.00 0.00 0.00 82 1009.1
20260505181331 27 211 1.6 3.2 0.00 0.00 0.00 82 1009.0
20260505180827 27 212 3.2 3.2 0.00 0.00 0.00 80 1009.0
20260505180324 27 209 4.8 4.8 0.00 0.00 0.00 81 1009.3
20260505175820 27 226 3.2 3.2 0.00 0.00 0.00 80 1009.1
20260505175317 27 230 3.2 3.2 0.00 0.00 0.00 79 1009.2
20260505174813 27 240 3.2 4.8 0.00 0.00 0.00 79 1009.1
20260505174311 27 251 6.4 6.4 0.00 0.00 0.00 78 1009.3
20260505173806 27 226 3.2 3.2 0.00 0.00 0.00 80 1009.3
20260505173303 27 216 6.4 6.4 0.00 0.00 0.00 80 1009.3
20260505172800 27 232 4.8 4.8 0.00 0.00 0.00 80 1009.3
20260505172257 27 238 8.0 11.3 0.00 0.00 0.00 80 1009.3
20260505171752 27 233 3.2 4.8 0.00 0.00 0.00 82 1009.3
20260505171249 27 236 0.0 1.6 0.00 0.00 0.00 82 1009.2
20260505170746 26 223 6.4 9.7 0.00 0.00 0.00 82 1009.4
20260505170243 26 225 3.2 4.8 0.00 0.00 0.00 83 1009.4
20260505165738 26 219 3.2 4.8 0.00 0.00 0.00 83 1009.5
20260505165234 26 119 6.4 9.7 0.00 0.00 0.00 84 1009.6
20260505164730 26 216 8.0 9.7 0.00 0.00 0.00 83 1009.5
20260505164227 26 223 3.2 4.8 0.00 0.00 0.00 82 1009.2
20260505163725 27 216 3.2 4.8 0.00 0.00 0.00 81 1009.3
20260505163224 27 228 0.0 1.6 0.00 0.00 0.00 81 1009.4
20260505162720 27 201 6.4 12.9 0.00 0.00 0.00 80 1009.2
20260505162217 26 234 3.2 3.2 0.00 0.00 0.00 82 1009.2
20260505161714 26 227 4.8 6.4 0.00 0.00 0.00 83 1009.1
20260505161212 26 230 4.8 4.8 0.00 0.00 0.00 84 1009.4
20260505160709 26 230 1.6 3.2 0.00 0.00 0.00 84 1009.4
20260505160207 26 239 1.6 1.6 0.00 0.00 0.00 85 1009.3
20260505153146 26 225 9.7 16.1 0.00 0.00 0.00 86 1009.2
20260505152643 26 242 1.6 3.2 0.00 0.00 0.00 86 1009.2
20260505152138 25 211 3.2 4.8 0.00 0.00 0.00 86 1009.2
20260505151634 25 216 3.2 4.8 0.00 0.00 0.00 86 1009.1
20260505151131 25 242 1.6 3.2 0.00 0.00 0.00 87 1009.1
20260505150627 25 209 3.2 4.8 0.00 0.00 0.00 87 1009.2
20260505150125 25 214 3.2 3.2 0.00 0.00 0.00 88 1009.1
20260505140553 23 211 1.6 3.2 0.00 0.00 0.00 92 1008.9
20260505125007 22 216 3.2 3.2 0.00 0.00 0.00 96 1009.0
20260505124503 22 222 3.2 3.2 0.00 0.00 0.00 96 1009.0
20260505123959 22 219 3.2 4.8 0.00 0.00 0.00 97 1008.8
20260505123456 22 234 0.0 1.6 0.00 0.00 0.00 97 1008.7
20260505122952 22 214 0.0 0.0 0.00 0.00 0.00 97 1008.9
20260505122449 21 225 0.0 1.6 0.00 0.00 0.00 98 1008.6
20260505121946 21 215 3.2 4.8 0.00 0.00 0.00 98 1008.5
20260505121443 21 220 1.6 3.2 0.00 0.00 0.00 98 1008.5
20260505120939 21 231 0.0 0.0 0.00 0.00 0.00 98 1008.4
20260505120436 21 194 3.2 3.2 0.00 0.00 0.00 98 1008.1
20260505115935 21 214 0.0 1.6 0.00 0.00 0.00 98 1008.0
20260505115431 21 215 1.6 3.2 0.00 0.00 0.00 98 1008.1
20260505114929 21 206 3.2 3.2 0.00 0.00 0.00 98 1008.2
20260505114425 21 219 1.6 1.6 0.00 0.00 0.00 98 1008.6
20260505113921 21 225 0.0 0.0 0.00 0.00 0.00 98 1008.7
20260505113419 21 224 0.0 0.0 0.00 0.00 0.00 98 1008.5
20260505112914 21 227 0.0 0.0 0.00 0.00 0.00 98 1008.3
20260505112412 21 224 0.0 0.0 0.00 0.00 0.00 97 1008.3
20260505111908 21 233 1.6 1.6 0.00 0.00 0.00 98 1008.1
20260505111403 21 227 0.0 0.0 0.00 0.00 0.00 97 1008.2
20260505110859 21 228 0.0 0.0 0.00 0.00 0.00 97 1008.2
20260505110357 21 215 1.6 3.2 0.00 0.00 0.00 97 1008.0
20260505101827 21 227 0.0 0.0 0.00 0.00 0.00 97 1008.5
20260505101322 21 210 0.0 0.0 0.00 0.00 0.00 96 1008.4
20260505100818 21 220 0.0 0.0 0.00 0.00 0.00 96 1008.5
20260505100315 21 227 0.0 0.0 0.00 0.00 0.00 96 1008.5
20260505095811 21 229 0.0 0.0 0.00 0.00 0.00 96 1008.7
20260505095309 21 233 0.0 0.0 0.00 0.00 0.00 96 1008.7
20260505094804 21 247 3.2 3.2 0.00 0.00 0.00 96 1008.5
20260505094301 21 226 1.6 1.6 0.00 0.00 0.00 96 1008.4
20260505093756 21 221 0.0 1.6 0.00 0.00 0.00 96 1008.4
20260505093255 21 226 0.0 0.0 0.00 0.00 0.00 96 1008.3
20260505092751 21 198 1.6 1.6 0.00 0.00 0.00 96 1008.6
20260505092250 21 227 0.0 0.0 0.00 0.00 0.00 96 1008.6
20260505091747 21 227 0.0 0.0 0.00 0.00 0.00 95 1008.6
20260505091245 21 225 0.0 0.0 0.00 0.00 0.00 95 1008.7
20260505090742 21 192 1.6 3.2 0.00 0.00 0.00 95 1008.7
20260505090240 21 227 1.6 1.6 0.00 0.00 0.00 95 1008.8
20260505085737 21 228 0.0 1.6 0.00 0.00 0.00 95 1008.6
20260505085235 21 228 0.0 1.6 0.00 0.00 0.00 94 1008.7
20260505084732 21 233 0.0 0.0 0.00 0.00 0.00 94 1008.8
20260505084232 21 227 0.0 0.0 0.00 0.00 0.00 94 1008.9
20260505083728 21 232 0.0 0.0 0.00 0.00 0.00 94 1008.9
20260505083224 21 221 3.2 4.8 0.00 0.00 0.00 94 1008.8
20260505082721 21 218 3.2 3.2 0.00 0.00 0.00 94 1009.0
20260505082218 21 230 0.0 0.0 0.00 0.00 0.00 94 1008.9
20260505081713 21 227 0.0 0.0 0.00 0.00 0.00 94 1008.9
20260505081211 21 227 1.6 1.6 0.00 0.00 0.00 94 1009.0
20260505080708 21 232 0.0 0.0 0.00 0.00 0.00 94 1009.0
20260505080204 21 227 1.6 1.6 0.00 0.00 0.00 94 1009.3
20260505075700 21 218 1.6 3.2 0.00 0.00 0.00 93 1009.2
20260505075157 21 207 3.2 3.2 0.00 0.00 0.00 93 1009.0
20260505074654 21 231 1.6 1.6 0.00 0.00 0.00 93 1009.0
20260505074151 21 224 3.2 4.8 0.00 0.00 0.00 93 1009.3
20260505073649 21 253 3.2 4.8 0.00 0.00 0.00 93 1009.0
20260505073147 21 235 3.2 3.2 0.00 0.00 0.00 92 1009.2
20260505072642 21 239 3.2 3.2 0.00 0.00 0.00 92 1009.2
20260505072139 21 241 1.6 3.2 0.00 0.00 0.00 92 1009.3
20260505071634 21 225 1.6 3.2 0.00 0.00 0.00 92 1009.2
20260505071132 21 223 3.2 4.8 0.00 0.00 0.00 92 1009.5
20260505070629 21 239 0.0 0.0 0.00 0.00 0.00 92 1009.6
20260505070125 21 239 0.0 0.0 0.00 0.00 0.00 91 1009.7
20260505065622 21 224 0.0 0.0 0.00 0.00 0.00 91 1009.8
20260505065118 21 230 0.0 0.0 0.00 0.00 0.00 91 1009.7
20260505064615 21 230 1.6 3.2 0.00 0.00 0.00 91 1009.6
20260505064114 21 230 0.0 1.6 0.00 0.00 0.00 91 1009.7
20260505063611 21 215 1.6 1.6 0.00 0.00 0.00 91 1009.6
20260505063106 21 219 1.6 3.2 0.00 0.00 0.00 91 1009.9
20260505062603 21 222 0.0 1.6 0.00 0.00 0.00 91 1010.1
20260505062100 21 231 0.0 1.6 0.00 0.00 0.00 91 1009.9
20260505061557 21 214 1.6 3.2 0.00 0.00 0.00 90 1009.9
20260505061056 21 213 1.6 3.2 0.00 0.00 0.00 90 1010.1
20260505060553 21 227 1.6 1.6 0.00 0.00 0.00 90 1010.2